Location: Village de las Huertas
(35.3014°N, 106.4095°W)
Time: 20:51:35
(UTC+00:00)

Hubble Space Telescope - Visible Passes

Search period start: 18 January 2021 00:00
Search period end: 28 January 2021 00:00
Orbit: 536 x 539 km, 28.5° (Epoch: 17 January)

Date Brightness Start Highest point End Pass type
(mag) Time Alt. Az. Time Alt. Az. Time Alt. Az.
18 Jan 3.2 00:54:51 10° S 00:56:39 13° SSE 00:58:27 10° SE visible
18 Jan 2.8 02:33:45 10° SW 02:35:50 22° SSW 02:35:50 22° SSW visible
19 Jan 3.1 00:43:18 10° SSW 00:45:43 15° SSE 00:48:07 10° SE visible
19 Jan 2.3 02:22:46 10° SW 02:25:40 27° S 02:25:40 27° S visible
20 Jan 2.0 02:11:49 10° WSW 02:15:27 30° S 02:15:31 30° S visible
21 Jan 2.0 02:00:54 10° WSW 02:04:34 31° S 02:05:22 29° SSE visible
22 Jan 2.1 01:50:00 10° WSW 01:53:41 31° S 01:55:15 24° SE visible
23 Jan 2.1 01:39:07 10° WSW 01:42:47 31° S 01:45:09 18° SE visible
23 Jan 4.0 03:20:25 10° WSW 03:20:29 10° WSW 03:20:29 10° WSW visible
24 Jan 2.3 01:28:16 10° WSW 01:31:54 30° S 01:35:06 12° SE visible
24 Jan 3.7 03:09:47 10° WSW 03:10:26 13° SW 03:10:26 13° SW visible
25 Jan 2.4 01:17:27 10° WSW 01:21:00 28° S 01:24:35 10° SE visible
25 Jan 3.5 02:59:16 10° SW 03:00:28 14° SW 03:00:28 14° SW visible
26 Jan 2.6 01:06:38 10° WSW 01:10:07 26° S 01:13:36 10° SE visible
26 Jan 3.5 02:48:57 10° SW 02:50:36 12° SSW 02:50:36 12° SSW visible
27 Jan 2.8 00:55:52 10° WSW 00:59:12 24° SSW 01:02:33 10° SE visible
